When you browse on this site, cookies collect data to enhance your experience and personalize the content and advertising you see.
Visit our Privacy Policy to learn more. By continuing to use the site, you agree to this use of cookies and data.
  • In Österreich
  • Länderverzeichnis
  • Für 7 Tage
  • Wassertemperatur
  • Wetterkarte
  • News
  • Widgets
  • user-avatar
    Anmelden

    Stündliche Wetter Mendoza

    Heute, 12 Dezember, Donnerstag

    Zeit Temperatur Niederschläge Wind Luftdruck Luftfeuchtigkeit
    00:00 +26°C° 0 mm 3 m/S 698 mmHg 22%
    01:00 +25°C° 0 mm 4 m/S 698 mmHg 20%
    02:00 +23°C° 0 mm 4 m/S 699 mmHg 20%
    03:00 +21°C° 0 mm 4 m/S 699 mmHg 21%
    04:00 +19°C° 0 mm 4 m/S 699 mmHg 22%
    05:00 +19°C° 0 mm 4 m/S 699 mmHg 21%
    06:00 +20°C° 0 mm 4 m/S 699 mmHg 20%
    07:00 +20°C° 0 mm 5 m/S 700 mmHg 19%
    08:00 +21°C° 0 mm 4 m/S 700 mmHg 18%
    09:00 +21°C° 0 mm 4 m/S 699 mmHg 18%
    10:00 +22°C° 0 mm 4 m/S 699 mmHg 18%
    11:00 +23°C° 0 mm 4 m/S 699 mmHg 17%
    12:00 +25°C° 0 mm 4 m/S 698 mmHg 16%
    13:00 +27°C° 0 mm 4 m/S 698 mmHg 16%
    14:00 +27°C° 0 mm 4 m/S 697 mmHg 16%
    15:00 +27°C° 0 mm 4 m/S 697 mmHg 16%
    16:00 +27°C° 0 mm 4 m/S 696 mmHg 16%
    17:00 +26°C° 0 mm 4 m/S 697 mmHg 16%
    18:00 +25°C° 0 mm 3 m/S 697 mmHg 17%
    19:00 +25°C° 0 mm 3 m/S 698 mmHg 18%
    20:00 +24°C° 0 mm 3 m/S 698 mmHg 19%
    21:00 +23°C° 0 mm 2 m/S 698 mmHg 21%
    22:00 +21°C° 0 mm 2 m/S 698 mmHg 22%
    23:00 +20°C° 0 mm 2 m/S 697 mmHg 24%

    Morgen, 13 Dezember, Freitag

    Zeit Temperatur Niederschläge Wind Luftdruck Luftfeuchtigkeit
    00:00 +21°C° 0 mm 1 m/S 696 mmHg 26%
    01:00 +20°C° 0 mm 1 m/S 696 mmHg 27%
    02:00 +19°C° 0 mm 1 m/S 695 mmHg 28%
    03:00 +19°C° 0 mm 1 m/S 695 mmHg 28%
    04:00 +19°C° 0 mm 1 m/S 695 mmHg 28%
    05:00 +21°C° 0 mm 1 m/S 695 mmHg 25%
    06:00 +23°C° 0 mm 1 m/S 696 mmHg 22%
    07:00 +25°C° 0 mm 1 m/S 696 mmHg 19%
    08:00 +26°C° 0 mm 2 m/S 696 mmHg 18%
    09:00 +28°C° 0 mm 3 m/S 696 mmHg 17%
    10:00 +29°C° 0 mm 3 m/S 696 mmHg 16%
    11:00 +30°C° 0 mm 3 m/S 695 mmHg 16%
    12:00 +31°C° 0 mm 3 m/S 695 mmHg 15%
    13:00 +33°C° 0 mm 3 m/S 695 mmHg 14%
    14:00 +34°C° 0 mm 2 m/S 695 mmHg 14%
    15:00 +34°C° 0 mm 2 m/S 694 mmHg 13%
    16:00 +35°C° 0 mm 2 m/S 694 mmHg 13%
    17:00 +32°C° 0 mm 2 m/S 694 mmHg 15%
    18:00 +31°C° 0 mm 1 m/S 694 mmHg 17%
    19:00 +29°C° 0 mm 1 m/S 695 mmHg 19%
    20:00 +29°C° 0 mm 1 m/S 695 mmHg 21%
    21:00 +28°C° 0 mm 1 m/S 695 mmHg 22%
    22:00 +27°C° 0 mm 1 m/S 695 mmHg 24%
    23:00 +27°C° 0 mm 3 m/S 695 mmHg 26%

    übermorgen, 14 Dezember, Samstag

    Zeit Temperatur Niederschläge Wind Luftdruck Luftfeuchtigkeit
    00:00 +26°C° 0 mm 5 m/S 695 mmHg 27%
    01:00 +24°C° 0 mm 6 m/S 695 mmHg 29%
    02:00 +23°C° 0 mm 7 m/S 695 mmHg 32%
    03:00 +22°C° 0 mm 8 m/S 696 mmHg 35%
    04:00 +22°C° 0 mm 9 m/S 696 mmHg 37%
    05:00 +22°C° 0 mm 8 m/S 696 mmHg 37%
    06:00 +23°C° 0 mm 7 m/S 697 mmHg 36%
    07:00 +23°C° 0 mm 7 m/S 697 mmHg 35%
    08:00 +24°C° 0 mm 6 m/S 697 mmHg 33%
    09:00 +26°C° 0 mm 5 m/S 697 mmHg 31%
    10:00 +27°C° 0 mm 5 m/S 697 mmHg 29%
    11:00 +28°C° 0 mm 5 m/S 697 mmHg 27%
    12:00 +29°C° 0 mm 4 m/S 696 mmHg 25%
    13:00 +30°C° 0 mm 4 m/S 696 mmHg 23%
    14:00 +32°C° 0 mm 4 m/S 696 mmHg 23%
    15:00 +32°C° 0 mm 4 m/S 695 mmHg 22%
    16:00 +32°C° 0 mm 4 m/S 695 mmHg 21%
    17:00 +30°C° 0 mm 3 m/S 696 mmHg 22%
    18:00 +29°C° 0 mm 3 m/S 696 mmHg 24%
    19:00 +28°C° 0 mm 3 m/S 697 mmHg 25%
    20:00 +27°C° 0.2 mm 4 m/S 697 mmHg 30%
    21:00 +26°C° 0.2 mm 5 m/S 698 mmHg 35%
    22:00 +23°C° 0.2 mm 7 m/S 698 mmHg 39%
    23:00 +23°C° 0 mm 5 m/S 698 mmHg 40%

    15 Dezember, Sonntag

    Zeit Temperatur Niederschläge Wind Luftdruck Luftfeuchtigkeit
    00:00 +23°C° 0 mm 4 m/S 698 mmHg 41%
    01:00 +24°C° 0 mm 3 m/S 698 mmHg 42%
    02:00 +23°C° 0 mm 2 m/S 698 mmHg 45%
    03:00 +21°C° 0 mm 2 m/S 698 mmHg 48%
    04:00 +21°C° 0 mm 1 m/S 698 mmHg 51%
    05:00 +23°C° 0 mm 2 m/S 699 mmHg 46%
    06:00 +24°C° 0 mm 3 m/S 699 mmHg 41%
    07:00 +25°C° 0 mm 4 m/S 700 mmHg 37%
    08:00 +26°C° 0 mm 4 m/S 699 mmHg 34%
    09:00 +27°C° 0 mm 4 m/S 699 mmHg 32%
    10:00 +28°C° 0 mm 4 m/S 699 mmHg 29%
    11:00 +29°C° 0 mm 4 m/S 699 mmHg 27%
    12:00 +30°C° 0 mm 4 m/S 698 mmHg 24%
    13:00 +32°C° 0 mm 4 m/S 698 mmHg 22%
    14:00 +32°C° 0 mm 4 m/S 698 mmHg 20%
    15:00 +32°C° 0 mm 4 m/S 697 mmHg 19%
    16:00 +32°C° 0 mm 4 m/S 697 mmHg 18%
    17:00 +30°C° 0 mm 4 m/S 697 mmHg 19%
    18:00 +29°C° 0 mm 3 m/S 697 mmHg 19%
    19:00 +28°C° 0 mm 3 m/S 697 mmHg 20%
    20:00 +27°C° 0 mm 3 m/S 697 mmHg 21%
    21:00 +26°C° 0 mm 2 m/S 697 mmHg 23%
    22:00 +25°C° 0 mm 2 m/S 697 mmHg 24%
    23:00 +25°C° 0 mm 2 m/S 697 mmHg 26%

    16 Dezember, Montag

    Zeit Temperatur Niederschläge Wind Luftdruck Luftfeuchtigkeit
    00:00 +24°C° 0 mm 2 m/S 696 mmHg 27%
    01:00 +23°C° 0 mm 1 m/S 696 mmHg 29%
    02:00 +23°C° 0 mm 2 m/S 696 mmHg 29%
    03:00 +21°C° 0 mm 2 m/S 696 mmHg 29%
    04:00 +21°C° 0 mm 3 m/S 695 mmHg 30%
    05:00 +24°C° 0 mm 3 m/S 696 mmHg 27%
    06:00 +25°C° 0 mm 4 m/S 696 mmHg 25%
    07:00 +26°C° 0 mm 4 m/S 696 mmHg 22%
    08:00 +28°C° 0 mm 4 m/S 696 mmHg 20%
    09:00 +29°C° 0 mm 4 m/S 696 mmHg 19%
    10:00 +30°C° 0 mm 4 m/S 696 mmHg 17%
    11:00 +32°C° 0 mm 4 m/S 695 mmHg 16%
    12:00 +33°C° 0 mm 4 m/S 695 mmHg 15%
    13:00 +34°C° 0 mm 4 m/S 694 mmHg 15%
    14:00 +34°C° 0 mm 4 m/S 694 mmHg 14%
    15:00 +34°C° 0 mm 4 m/S 694 mmHg 14%
    16:00 +35°C° 0 mm 4 m/S 694 mmHg 14%
    17:00 +33°C° 0 mm 4 m/S 694 mmHg 15%
    18:00 +32°C° 0 mm 5 m/S 695 mmHg 17%
    19:00 +30°C° 0 mm 5 m/S 695 mmHg 19%
    20:00 +28°C° 0 mm 4 m/S 695 mmHg 22%
    21:00 +27°C° 0 mm 3 m/S 695 mmHg 25%
    22:00 +26°C° 0 mm 2 m/S 696 mmHg 29%
    23:00 +25°C° 0 mm 2 m/S 695 mmHg 30%

    17 Dezember, Dienstag

    Zeit Temperatur Niederschläge Wind Luftdruck Luftfeuchtigkeit
    00:00 +25°C° 0 mm 2 m/S 695 mmHg 32%
    01:00 +24°C° 0 mm 2 m/S 695 mmHg 34%
    02:00 +24°C° 0 mm 2 m/S 695 mmHg 35%
    03:00 +23°C° 0 mm 2 m/S 694 mmHg 35%
    04:00 +23°C° 0 mm 2 m/S 694 mmHg 36%
    05:00 +24°C° 0 mm 2 m/S 695 mmHg 35%
    06:00 +26°C° 0 mm 2 m/S 695 mmHg 34%
    07:00 +27°C° 0 mm 2 m/S 695 mmHg 33%
    08:00 +28°C° 0 mm 3 m/S 695 mmHg 31%
    09:00 +30°C° 0 mm 3 m/S 695 mmHg 29%
    10:00 +31°C° 0 mm 3 m/S 695 mmHg 27%
    11:00 +33°C° 0 mm 3 m/S 694 mmHg 25%
    12:00 +35°C° 0 mm 2 m/S 694 mmHg 23%
    13:00 +36°C° 0 mm 2 m/S 693 mmHg 21%
    14:00 +36°C° 0 mm 2 m/S 693 mmHg 20%
    15:00 +36°C° 0 mm 2 m/S 693 mmHg 19%
    16:00 +36°C° 0 mm 1 m/S 693 mmHg 18%
    17:00 +35°C° 0 mm 1 m/S 693 mmHg 20%
    18:00 +33°C° 0 mm 1 m/S 693 mmHg 22%
    19:00 +32°C° 0 mm 1 m/S 693 mmHg 23%
    20:00 +31°C° 0 mm 1 m/S 693 mmHg 25%
    21:00 +31°C° 0 mm 2 m/S 693 mmHg 27%
    22:00 +30°C° 0 mm 2 m/S 694 mmHg 29%
    23:00 +30°C° 0 mm 3 m/S 693 mmHg 32%
    Mehr zeigen